Regional Weather Roundup
Issued by NWS Cleveland, OH

Home | Current Version | Previous Version | Graphics & Text | Print | Product List | Glossary On
Versions: 1 2 3 4 5 6 7 8 9 10 11 12 13 14 15 16 17 18 19 20 21 22 23 24 25 26 27 28 29 30 31 32 33 34 35 36 37 38 39 40 41 42 43 44 45 46 47 48 49 50
527
ASUS41 KCLE 070110
RWRCLE
OHIO REGIONAL WEATHER ROUNDUP
NATIONAL WEATHER SERVICE WILMINGTON, OH
800 PM EST SAT FEB 06 2016

NOTE: "FAIR" INDICATES FEW OR NO CLOUDS BELOW 12,000 FEET WITH NO
SIGNIFICANT WEATHER AND/OR OBSTRUCTIONS TO VISIBILITY.

OHZ001>008-015>018-024>027-034-035-043-044-070200-
   NORTHWEST OHIO

CITY           SKY/WX    TMP DP  RH WIND       PRES   REMARKS
DEFIANCE       FAIR      34  25  69 SW6       30.20F WCI  29
FINDLAY        FAIR      30  23  75 S6        30.20F WCI  24
TOLEDO EXPRESS FAIR      31  22  69 SW7       30.19F WCI  24
TOLEDO EXEC    FAIR      30  22  72 SW7       30.21F WCI  23
LIMA           FAIR      33  22  63 SW6       30.21S WCI  28
$$

OHZ009>014-019>023-028>033-038-089-070200-
   NORTHEAST OHIO

CITY           SKY/WX    TMP DP  RH WIND       PRES   REMARKS
CLE-HOPKINS    FAIR      34  20  56 S6        30.23S WCI  29
CLE-LAKEFRONT  FAIR      37  21  52 SW13      30.20F
CUY CO. ARPT   PTCLDY    32  25  74 S6        30.21S WCI  26
LORAIN-ELYRIA  FAIR      31  21  66 SW7       30.21S WCI  24
ASHTABULA      FAIR      28  23  81 CALM      30.20F
AKRON-CANTON   FAIR      32  15  49 SW6       30.20F WCI  26
WOOSTER        FAIR      32  18  56 SW6       30.21S WCI  26
MANSFIELD      FAIR      29  18  63 S7        30.20S WCI  22
YOUNGSTOWN     FAIR      33  16  49 S5        30.19F WCI  29
$$

OHZ042-051>053-060>062-070>072-077>081-070200-
  SOUTHWEST OHIO

CITY           SKY/WX    TMP DP  RH WIND       PRES   REMARKS
CINC-COVINGTON FAIR      36  22  56 SW3       30.24F
CINC-LUNKEN    FAIR      33  28  81 CALM      30.27S
HAMILTON       FAIR      31  27  85 CALM      30.26S
DAYTON         FAIR      34  23  64 SW3       30.23F
WRIGHT-PAT AFB FAIR      33  19  57 CALM      30.23S
DAYTON GENERAL FAIR      36  20  52 SW3       30.23S
WILMINGTON     FAIR      32  24  72 CALM      30.23F
$$

OHZ036-037-039>041-045>050-054>059-063>069-073>076-082>088-070200-
  CENTRAL AND SOUTHEAST OHIO

CITY           SKY/WX    TMP DP  RH WIND       PRES   REMARKS
COLUMBUS       FAIR      36  15  42 CALM      30.24S
OSU AIRPORT    FAIR      36  18  48 S5        30.23S
BOLTON FIELD   FAIR      32  20  61 CALM      30.24S
RICKENBACK AFB FAIR      35  20  56 S5        30.24S
NEWARK         FAIR      28  19  69 CALM      30.23S
MARION         FAIR      30  19  63 SW5       30.22S WCI  25
LANCASTER      FAIR      29  23  78 CALM      30.24F
ZANESVILLE     FAIR      37  13  37 SW3       30.24F
NEW PHILLY     FAIR      31  18  58 CALM      30.24S
$$




USA.gov is the U.S. government's official web portal to all federal, state and local government web resources and services.